Flag for Brazil Weather past 2 weeks in Curitiba, Paraná, Brazil

Now
68 °F

Mostly cloudy.


Feels Like: 68 °F
Forecast: 65 / 72 °F
Wind: 7 mph from Southeast

Location: Curitiba Aeroporto

Current Time: Mar 28, 2015 at 11:27:31 AM

Latest Report: Mar 28, 2015 at 11:00 AM


Visibility: N/A

Pressure: 30.24 "Hg

Humidity: 88%

Dew point: 64 °F

Location of CuritibaLocation

Historic Weather in Curitiba — Graph

°F

Curitiba temperature yesterday

Maximum temperature yesterday: 75 °F (at 12:00 PM)
Minimum temperature yesterday: 64 °F (at 12:00 AM)
Average temperature yesterday: 68 °F

Past Weeks' High & Low Weather Summary

 TemperatureHumidityPressure
High82 °F (Mar 26, 3:00 PM)100% (Mar 14, 4:00 PM)30.27 "Hg (Mar 14, 4:00 PM)
Low37 °F (Mar 15, 5:00 PM)28% (Mar 26, 3:00 PM)29.92 "Hg (Mar 21, 2:00 PM)
Average67 °F84%30.10 "Hg
* Reported Mar 13 10:00 AM — Mar 28 10:00 AM, Curitiba, Weather by CustomWeather, © 2015

Note: Actual official high and low records may vary slightly from our data, if they occured in-between our weather recording intervals... More about our weather records

Advertising

Curitiba weather history for previous 24 hours

 ConditionsComfort  
Time TempWeatherWind HumidityBarometerVisibility
10:00 AM
Sat, Mar 28
68 °FMore clouds than sun.7 mph88%30.24 "HgN/A
9:00 AM66 °FMore clouds than sun.3 mph94%30.24 "HgN/A
8:00 AM64 °FFog.5 mph100%30.21 "Hg2 mi
7:00 AM64 °FFog.3 mph94%30.18 "Hg2 mi
6:00 AM64 °FBroken clouds.6 mph94%30.18 "HgN/A
5:00 AM64 °FPassing clouds.6 mph94%30.15 "HgN/A
4:00 AM64 °FPassing clouds.3 mph94%30.15 "HgN/A
3:00 AM64 °FPassing clouds.7 mph94%30.15 "HgN/A
2:00 AM64 °FPartly cloudy.5 mph94%30.18 "HgN/A
1:00 AM64 °FPassing clouds.6 mph94%30.18 "HgN/A
12:00 AM64 °FPartly cloudy.6 mph100%30.18 "Hg5 mi
11:00 PM
Fri, Mar 27
64 °FLight rain. Passing clouds.3 mph94%30.21 "Hg5 mi
10:00 PM66 °FLight rain. Passing clouds.3 mph94%30.21 "Hg6 mi
9:00 PM66 °FLight rain. Passing clouds.6 mph94%30.18 "Hg6 mi
8:00 PM66 °FLight rain. Passing clouds.6 mph94%30.15 "Hg5 mi
7:00 PM66 °FThunderstorms. Partly cloudy.5 mph94%N/A4 mi
6:00 PM68 °FLight rain. Passing clouds.6 mph88%30.12 "Hg5 mi
5:00 PM70 °FPartly sunny.12 mph83%30.12 "HgN/A
4:00 PM73 °FPartly sunny.7 mph78%30.09 "HgN/A
3:00 PM75 °FPartly sunny.13 mph74%30.09 "HgN/A
2:00 PM75 °FPartly sunny.8 mph69%30.12 "HgN/A
1:00 PM75 °FPartly sunny.5 mph65%30.12 "HgN/A
12:00 PM75 °FPartly sunny.6 mph61%30.15 "HgN/A
11:00 AM73 °FBroken clouds.6 mph74%30.15 "HgN/A
Weather by CustomWeather, © 2015

See weather overviewHow to use our weather pages